This is the latest recevied weather packets stored in our database for station/object DL2ARH-7. If no packets are shown the sender has not sent any weather packets the latest 10 day(s).
| Time | Temp. | Humidity | Pressure | Rain* | Wind** | Luminosity | Snow |
|---|---|---|---|---|---|---|---|
| 1787899584 | 20.56° C | 77% | 1011.9 hPa | 0 mm | - | - | - |
| 1787899452 | 20.56° C | 76% | 1012 hPa | 0 mm | - | - | - |
| 1787899255 | 20.56° C | 76% | 1012.3 hPa | 0 mm | - | - | - |
| 1787899185 | 20.56° C | 76% | 1012.1 hPa | 0 mm | - | - | - |
| 1787899119 | 20.56° C | 76% | 1012.3 hPa | 0 mm | - | - | - |
| 1787898986 | 20° C | 76% | 1012.2 hPa | 0 mm | - | - | - |
| 1787898853 | 20.56° C | 76% | 1012.2 hPa | 0 mm | - | - | - |
| 1787898786 | 20° C | 76% | 1012.2 hPa | 0 mm | - | - | - |
| 1787898653 | 20.56° C | 76% | 1012.5 hPa | 0 mm | - | - | - |
| 1787898521 | 20° C | 76% | 1012.6 hPa | 0 mm | - | - | - |
| 1787898455 | 20° C | 76% | 1012.4 hPa | 0 mm | - | - | - |
| 1787898387 | 20° C | 75% | 1012.3 hPa | 0 mm | - | - | - |
| 1787898254 | 20° C | 74% | 1011.8 hPa | 0 mm | - | - | - |
| 1787898188 | 20.56° C | 73% | 1011.6 hPa | 0 mm | - | - | - |
| 1787898121 | 20.56° C | 73% | 1011.3 hPa | 0 mm | - | - | - |
| 1787898055 | 20.56° C | 73% | 1011.2 hPa | 0 mm | - | - | - |
| 1787897989 | 20.56° C | 73% | 1011.1 hPa | 0 mm | - | - | - |
| 1787897923 | 20.56° C | 73% | 1011 hPa | 0 mm | - | - | - |
| 1787850350 | 26.11° C | 18% | 1014.4 hPa | 0 mm | - | - | - |
| 1787850015 | 26.67° C | 18% | 1014.3 hPa | 0 mm | - | - | - |
| 1787849949 | 26.67° C | 18% | 1014.3 hPa | 0 mm | - | - | - |
| 1787849883 | 26.11° C | 18% | 1014.4 hPa | 0 mm | - | - | - |
| 1787849749 | 47.22° C | 17% | 1014.4 hPa | 0 mm | - | - | - |
| 1787849549 | 26.67° C | 18% | 1014.3 hPa | 0 mm | - | - | - |
| 1787849416 | 26.67° C | 18% | 1014.4 hPa | 0 mm | - | - | - |
* Rain latest hour (hover to see other rain measurements)
** Current wind speed in m/s (hover to see current wind gust speed)